EN

Hourly Weather Kysle

Today, 26 July, Monday

Time Temperature Precipitation Wind Pressure Humidity
00:00 +20°C° 0 mm 3 mps 752 mmHg 53%
01:00 +20°C° 0 mm 3 mps 752 mmHg 57%
02:00 +19°C° 0 mm 2 mps 752 mmHg 60%
03:00 +19°C° 0 mm 2 mps 752 mmHg 61%
04:00 +19°C° 0 mm 2 mps 752 mmHg 62%
05:00 +19°C° 0 mm 2 mps 752 mmHg 63%
06:00 +21°C° 0 mm 3 mps 752 mmHg 56%
07:00 +25°C° 0 mm 3 mps 752 mmHg 48%
08:00 +27°C° 0 mm 4 mps 752 mmHg 41%
09:00 +28°C° 0 mm 4 mps 752 mmHg 38%
10:00 +30°C° 0 mm 4 mps 752 mmHg 34%
11:00 +32°C° 0 mm 4 mps 752 mmHg 30%
12:00 +33°C° 0 mm 4 mps 752 mmHg 29%
13:00 +33°C° 0 mm 3 mps 752 mmHg 27%
14:00 +34°C° 0 mm 3 mps 751 mmHg 26%
15:00 +33°C° 0 mm 3 mps 751 mmHg 27%
16:00 +33°C° 0 mm 3 mps 751 mmHg 28%
17:00 +31°C° 0 mm 3 mps 751 mmHg 28%
18:00 +30°C° 0 mm 3 mps 751 mmHg 32%
19:00 +28°C° 0 mm 3 mps 751 mmHg 36%
20:00 +26°C° 0 mm 3 mps 752 mmHg 40%
21:00 +25°C° 0 mm 3 mps 752 mmHg 44%
22:00 +24°C° 0 mm 3 mps 752 mmHg 47%
23:00 +21°C° 0 mm 2 mps 752 mmHg 51%

Tomorrow, 27 July, Tuesday

Time Temperature Precipitation Wind Pressure Humidity
00:00 +21°C° 0 mm 2 mps 752 mmHg 53%
01:00 +20°C° 0 mm 2 mps 752 mmHg 55%
02:00 +20°C° 0 mm 2 mps 752 mmHg 57%
03:00 +19°C° 0 mm 2 mps 752 mmHg 57%
04:00 +19°C° 0 mm 2 mps 752 mmHg 57%
05:00 +19°C° 0 mm 2 mps 752 mmHg 58%
06:00 +23°C° 0 mm 2 mps 752 mmHg 50%
07:00 +26°C° 0 mm 3 mps 752 mmHg 42%
08:00 +28°C° 0 mm 3 mps 752 mmHg 34%
09:00 +29°C° 0 mm 3 mps 752 mmHg 31%
10:00 +31°C° 0 mm 3 mps 752 mmHg 28%
11:00 +33°C° 0 mm 3 mps 752 mmHg 25%
12:00 +33°C° 0 mm 3 mps 751 mmHg 24%
13:00 +34°C° 0 mm 2 mps 751 mmHg 23%
14:00 +34°C° 0 mm 2 mps 751 mmHg 22%
15:00 +34°C° 0 mm 2 mps 750 mmHg 22%
16:00 +34°C° 0 mm 2 mps 750 mmHg 23%
17:00 +34°C° 0 mm 2 mps 750 mmHg 23%
18:00 +31°C° 0 mm 2 mps 750 mmHg 27%
19:00 +29°C° 0 mm 2 mps 750 mmHg 30%
20:00 +27°C° 0 mm 1 mps 750 mmHg 33%
21:00 +26°C° 0 mm 1 mps 750 mmHg 36%
22:00 +25°C° 0 mm 1 mps 750 mmHg 38%
23:00 +24°C° 0 mm 1 mps 750 mmHg 41%

Day after tomorrow, 28 July, Wednesday

Time Temperature Precipitation Wind Pressure Humidity
00:00 +24°C° 0 mm 1 mps 750 mmHg 43%
01:00 +23°C° 0 mm 1 mps 750 mmHg 45%
02:00 +22°C° 0 mm 1 mps 750 mmHg 47%
03:00 +22°C° 0 mm 1 mps 750 mmHg 48%
04:00 +22°C° 0 mm 1 mps 750 mmHg 49%
05:00 +22°C° 0 mm 1 mps 749 mmHg 50%
06:00 +25°C° 0 mm 1 mps 749 mmHg 45%
07:00 +27°C° 0 mm 2 mps 749 mmHg 40%
08:00 +29°C° 0 mm 2 mps 749 mmHg 35%
09:00 +30°C° 0 mm 2 mps 749 mmHg 32%
10:00 +32°C° 0 mm 2 mps 749 mmHg 29%
11:00 +34°C° 0 mm 3 mps 749 mmHg 27%
12:00 +34°C° 0 mm 3 mps 748 mmHg 26%
13:00 +35°C° 0 mm 3 mps 748 mmHg 26%
14:00 +35°C° 0 mm 4 mps 747 mmHg 26%
15:00 +34°C° 0.1 mm 4 mps 747 mmHg 32%
16:00 +31°C° 0.1 mm 3 mps 747 mmHg 37%
17:00 +30°C° 0.1 mm 3 mps 746 mmHg 42%
18:00 +28°C° 0.7 mm 3 mps 746 mmHg 56%
19:00 +25°C° 0.7 mm 3 mps 746 mmHg 69%
20:00 +22°C° 0.7 mm 3 mps 746 mmHg 82%
21:00 +22°C° 1.2 mm 3 mps 746 mmHg 84%
22:00 +21°C° 1.2 mm 3 mps 746 mmHg 86%
23:00 +21°C° 1.2 mm 3 mps 746 mmHg 88%

29 July, Thursday

Time Temperature Precipitation Wind Pressure Humidity
00:00 +21°C° 0.2 mm 3 mps 745 mmHg 89%
01:00 +20°C° 0.2 mm 3 mps 745 mmHg 89%
02:00 +20°C° 0.2 mm 4 mps 745 mmHg 90%
03:00 +20°C° 0 mm 3 mps 745 mmHg 90%
04:00 +20°C° 0 mm 3 mps 745 mmHg 91%
05:00 +20°C° 0 mm 2 mps 745 mmHg 92%
06:00 +23°C° 0 mm 2 mps 745 mmHg 84%
07:00 +25°C° 0 mm 2 mps 745 mmHg 75%
08:00 +27°C° 0 mm 2 mps 745 mmHg 67%
09:00 +29°C° 0 mm 2 mps 745 mmHg 59%
10:00 +31°C° 0 mm 3 mps 745 mmHg 50%
11:00 +34°C° 0 mm 4 mps 745 mmHg 42%
12:00 +35°C° 0 mm 4 mps 744 mmHg 41%
13:00 +35°C° 0 mm 4 mps 744 mmHg 40%
14:00 +35°C° 0 mm 5 mps 744 mmHg 39%
15:00 +35°C° 0.1 mm 4 mps 743 mmHg 40%
16:00 +34°C° 0.1 mm 4 mps 743 mmHg 41%
17:00 +34°C° 0.1 mm 4 mps 743 mmHg 43%
18:00 +30°C° 0.2 mm 3 mps 743 mmHg 53%
19:00 +28°C° 0.2 mm 3 mps 743 mmHg 63%
20:00 +25°C° 0.2 mm 3 mps 743 mmHg 73%
21:00 +24°C° 0.6 mm 3 mps 743 mmHg 79%
22:00 +22°C° 0.6 mm 3 mps 743 mmHg 84%
23:00 +21°C° 0.6 mm 2 mps 743 mmHg 90%

30 July, Friday

Time Temperature Precipitation Wind Pressure Humidity
00:00 +21°C° 0 mm 2 mps 743 mmHg 88%
01:00 +21°C° 0 mm 2 mps 743 mmHg 86%
02:00 +21°C° 0 mm 2 mps 743 mmHg 85%
03:00 +23°C° 0 mm 2 mps 743 mmHg 85%
04:00 +23°C° 0 mm 2 mps 743 mmHg 85%
05:00 +23°C° 0 mm 2 mps 743 mmHg 85%
06:00 +24°C° 0 mm 3 mps 743 mmHg 78%
07:00 +26°C° 0 mm 3 mps 743 mmHg 72%
08:00 +28°C° 0 mm 3 mps 744 mmHg 65%
09:00 +29°C° 0 mm 3 mps 744 mmHg 59%
10:00 +30°C° 0 mm 3 mps 744 mmHg 54%
11:00 +33°C° 0 mm 3 mps 744 mmHg 48%
12:00 +34°C° 0 mm 4 mps 744 mmHg 44%
13:00 +34°C° 0 mm 4 mps 744 mmHg 41%
14:00 +35°C° 0 mm 4 mps 743 mmHg 38%
15:00 +34°C° 0 mm 4 mps 743 mmHg 39%
16:00 +34°C° 0 mm 4 mps 743 mmHg 40%
17:00 +33°C° 0 mm 5 mps 743 mmHg 41%
18:00 +30°C° 0 mm 4 mps 743 mmHg 45%
19:00 +29°C° 0 mm 3 mps 744 mmHg 49%
20:00 +27°C° 0 mm 2 mps 744 mmHg 54%
21:00 +26°C° 0 mm 2 mps 744 mmHg 55%
22:00 +25°C° 0 mm 1 mps 744 mmHg 56%
23:00 +25°C° 0 mm 1 mps 744 mmHg 57%

31 July, Saturday

Time Temperature Precipitation Wind Pressure Humidity
00:00 +24°C° 0 mm 1 mps 744 mmHg 59%
01:00 +24°C° 0 mm 1 mps 744 mmHg 61%
02:00 +23°C° 0 mm 1 mps 744 mmHg 62%
03:00 +23°C° 0 mm 1 mps 744 mmHg 64%
04:00 +21°C° 0 mm 0 mps 744 mmHg 65%
05:00 +21°C° 0 mm 0 mps 744 mmHg 67%
06:00 +23°C° 0 mm 0 mps 744 mmHg 60%
07:00 +27°C° 0 mm 1 mps 745 mmHg 53%
08:00 +30°C° 0 mm 1 mps 745 mmHg 46%
09:00 +31°C° 0 mm 1 mps 745 mmHg 41%
10:00 +32°C° 0 mm 2 mps 744 mmHg 36%
11:00 +35°C° 0 mm 2 mps 744 mmHg 32%
12:00 +35°C° 0 mm 2 mps 744 mmHg 30%
13:00 +36°C° 0 mm 3 mps 744 mmHg 28%
14:00 +37°C° 0 mm 3 mps 743 mmHg 26%
15:00 +36°C° 0 mm 3 mps 743 mmHg 27%
16:00 +36°C° 0 mm 3 mps 743 mmHg 27%
17:00 +36°C° 0 mm 3 mps 743 mmHg 27%
18:00 +34°C° 0 mm 2 mps 743 mmHg 31%
19:00 +31°C° 0 mm 2 mps 743 mmHg 35%
20:00 +29°C° 0 mm 1 mps 743 mmHg 39%
21:00 +28°C° 0 mm 1 mps 743 mmHg 41%
22:00 +27°C° 0 mm 2 mps 743 mmHg 43%
23:00 +26°C° 0 mm 2 mps 743 mmHg 45%
Show more